sat.trackr.live / text

‹ back to catalog

O3B MPOWER F4

NORAD 56367 · 2023-059A

PAYLOAD ACTIVE UNKNOWN

§ Identity

Operator
Country
O3B
Launch date
2023-04-28
Launch site
AFETR
Launch vehicle
Mass (kg)
RCS (m²)

Purposes: comms

External: N2YO · Heavens-Above · Gunter

§ Orbital elements

Epoch: 2026-05-24T23:41:25.915200Z

Period
287.93 min
Inclination
0.0644°
Eccentricity
0.0007503
Mean motion
5.00115699 rev/d
Perigee alt
8,055.0 km
Apogee alt
8,076.7 km
Semi-major
14,444.0 km
B*
0.0000e+0
RAAN
358.5617°
Arg perigee
74.0705°
Mean anomaly
287.4493°
Rev number
5,744

§ Raw data

O3B MPOWER F41 56367U 23059A   26144.98710550 -.00000024  00000+0  00000+0 0  99932 56367   0.0644 358.5617 0007503  74.0705 287.4493  5.00115699 57449

JSON: /api/v1/satellites/56367 · /tle

For live sub-satellite position, see the globe view (requires WebGL).

§ Visibility from observer

Set your observer location to see the next 7 days of passes ≥ 10°. The values pass through the URL so the page stays shareable.

No JS? Fill the form by hand. The geolocation button needs JavaScript.